Year,Month,Day,Hour,Minute,Value (Times are PST for temperature in C)
2016,04,17,00,00,8.70
2016,04,17,00,01,8.70
2016,04,17,00,02,8.70
2016,04,17,00,03,8.60
2016,04,17,00,04,8.60
2016,04,17,00,05,8.60
2016,04,17,00,06,8.60
2016,04,17,00,07,8.50
2016,04,17,00,08,8.60
2016,04,17,00,09,8.60
2016,04,17,00,10,8.60
2016,04,17,00,11,8.60
2016,04,17,00,12,8.60
2016,04,17,00,13,8.70
2016,04,17,00,14,8.70
2016,04,17,00,15,8.70
2016,04,17,00,16,8.70
2016,04,17,00,17,8.70
2016,04,17,00,18,8.80
2016,04,17,00,19,8.80
2016,04,17,00,20,8.90
2016,04,17,00,21,8.90
2016,04,17,00,22,9.00
2016,04,17,00,23,9.00
2016,04,17,00,24,9.10
2016,04,17,00,25,9.10
2016,04,17,00,26,9.10
2016,04,17,00,27,9.10
2016,04,17,00,28,9.10
2016,04,17,00,29,9.00
2016,04,17,00,30,8.90
2016,04,17,00,31,8.80
2016,04,17,00,32,8.60
2016,04,17,00,33,8.50
2016,04,17,00,34,8.50
2016,04,17,00,35,8.40
2016,04,17,00,36,8.40
2016,04,17,00,37,8.40
2016,04,17,00,38,8.40
2016,04,17,00,39,8.40
2016,04,17,00,40,8.40
2016,04,17,00,41,8.40
2016,04,17,00,42,8.40
2016,04,17,00,43,8.30
2016,04,17,00,44,8.30
2016,04,17,00,45,8.30
2016,04,17,00,46,8.30
2016,04,17,00,47,8.30
2016,04,17,00,48,8.30
2016,04,17,00,49,8.40
2016,04,17,00,50,8.40
2016,04,17,00,51,8.50
2016,04,17,00,52,8.50
2016,04,17,00,53,8.50
2016,04,17,00,54,8.60
2016,04,17,00,55,8.60
2016,04,17,00,56,8.60
2016,04,17,00,57,8.60
2016,04,17,00,58,8.70
2016,04,17,00,59,8.70
2016,04,17,01,00,8.70
2016,04,17,01,01,8.70
2016,04,17,01,02,8.70
2016,04,17,01,03,8.80
2016,04,17,01,04,8.80
2016,04,17,01,05,8.80
2016,04,17,01,06,8.80
2016,04,17,01,07,8.80
2016,04,17,01,08,8.80
2016,04,17,01,09,8.80
2016,04,17,01,10,8.80
2016,04,17,01,11,8.80
2016,04,17,01,12,8.80
2016,04,17,01,13,8.70
2016,04,17,01,14,8.70
2016,04,17,01,15,8.60
2016,04,17,01,16,8.60
2016,04,17,01,17,8.50
2016,04,17,01,18,8.50
2016,04,17,01,19,8.50
2016,04,17,01,20,8.50
2016,04,17,01,21,8.60
2016,04,17,01,22,8.60
2016,04,17,01,23,8.60
2016,04,17,01,24,8.60
2016,04,17,01,25,8.60
2016,04,17,01,26,8.70
2016,04,17,01,27,8.70
2016,04,17,01,28,8.70
2016,04,17,01,29,8.70
2016,04,17,01,30,8.60
2016,04,17,01,31,8.60
2016,04,17,01,32,8.50
2016,04,17,01,33,8.40
2016,04,17,01,34,8.40
2016,04,17,01,35,8.30
2016,04,17,01,36,8.30
2016,04,17,01,37,8.20
2016,04,17,01,38,8.20
2016,04,17,01,39,8.20
2016,04,17,01,40,8.20
2016,04,17,01,41,8.20
2016,04,17,01,42,8.20
2016,04,17,01,43,8.10
2016,04,17,01,44,8.10
2016,04,17,01,45,8.10
2016,04,17,01,46,8.10
2016,04,17,01,47,8.10
2016,04,17,01,48,8.10
2016,04,17,01,49,8.10
2016,04,17,01,50,8.10
2016,04,17,01,51,8.10
2016,04,17,01,52,8.10
2016,04,17,01,53,8.20
2016,04,17,01,54,8.20
2016,04,17,01,55,8.20
2016,04,17,01,56,8.20
2016,04,17,01,57,8.20
2016,04,17,01,58,8.20
2016,04,17,01,59,8.30
2016,04,17,02,00,8.30
2016,04,17,02,01,8.30
2016,04,17,02,02,8.20
2016,04,17,02,03,8.20
2016,04,17,02,04,8.20
2016,04,17,02,05,8.20
2016,04,17,02,06,8.20
2016,04,17,02,07,8.10
2016,04,17,02,08,8.10
2016,04,17,02,09,8.10
2016,04,17,02,10,8.00
2016,04,17,02,11,8.00
2016,04,17,02,12,8.00
2016,04,17,02,13,8.00
2016,04,17,02,14,8.00
2016,04,17,02,15,8.10
2016,04,17,02,16,8.00
2016,04,17,02,17,8.00
2016,04,17,02,18,8.00
2016,04,17,02,19,8.00
2016,04,17,02,20,7.90
2016,04,17,02,21,7.90
2016,04,17,02,22,7.90
2016,04,17,02,23,7.90
2016,04,17,02,24,7.90
2016,04,17,02,25,7.90
2016,04,17,02,26,7.90
2016,04,17,02,27,7.90
2016,04,17,02,28,7.90
2016,04,17,02,29,8.00
2016,04,17,02,30,8.00
2016,04,17,02,31,8.00
2016,04,17,02,32,8.00
2016,04,17,02,33,8.00
2016,04,17,02,34,8.00
2016,04,17,02,35,8.00
2016,04,17,02,36,7.90
2016,04,17,02,37,7.90
2016,04,17,02,38,7.80
2016,04,17,02,39,7.70
2016,04,17,02,40,7.70
2016,04,17,02,41,7.70
2016,04,17,02,42,7.70
2016,04,17,02,43,7.70
2016,04,17,02,44,7.70
2016,04,17,02,45,7.70
2016,04,17,02,46,7.70
2016,04,17,02,47,7.70
2016,04,17,02,48,7.70
2016,04,17,02,49,7.70
2016,04,17,02,50,7.70
2016,04,17,02,51,7.70
2016,04,17,02,52,7.70
2016,04,17,02,53,7.70
2016,04,17,02,54,7.70
2016,04,17,02,55,7.60
2016,04,17,02,56,7.60
2016,04,17,02,57,7.60
2016,04,17,02,58,7.60
2016,04,17,02,59,7.70
2016,04,17,03,00,7.70
2016,04,17,03,01,7.70
2016,04,17,03,02,7.70
2016,04,17,03,03,7.70
2016,04,17,03,04,7.60
2016,04,17,03,05,7.60
2016,04,17,03,06,7.60
2016,04,17,03,07,7.60
2016,04,17,03,08,7.60
2016,04,17,03,09,7.60
2016,04,17,03,10,7.60
2016,04,17,03,11,7.60
2016,04,17,03,12,7.60
2016,04,17,03,13,7.70
2016,04,17,03,14,7.70
2016,04,17,03,15,7.70
2016,04,17,03,16,7.70
2016,04,17,03,17,7.70
2016,04,17,03,18,7.70
2016,04,17,03,19,7.70
2016,04,17,03,20,7.70
2016,04,17,03,21,7.60
2016,04,17,03,22,7.60
2016,04,17,03,23,7.60
2016,04,17,03,24,7.50
2016,04,17,03,25,7.50
2016,04,17,03,26,7.50
2016,04,17,03,27,7.50
2016,04,17,03,28,7.50
2016,04,17,03,29,7.50
2016,04,17,03,30,7.40
2016,04,17,03,31,7.40
2016,04,17,03,32,7.40
2016,04,17,03,33,7.40
2016,04,17,03,34,7.40
2016,04,17,03,35,7.40
2016,04,17,03,36,7.40
2016,04,17,03,37,7.40
2016,04,17,03,38,7.40
2016,04,17,03,39,7.40
2016,04,17,03,40,7.40
2016,04,17,03,41,7.40
2016,04,17,03,42,7.30
2016,04,17,03,43,7.30
2016,04,17,03,44,7.30
2016,04,17,03,45,7.30
2016,04,17,03,46,7.30
2016,04,17,03,47,7.30
2016,04,17,03,48,7.20
2016,04,17,03,49,7.20
2016,04,17,03,50,7.20
2016,04,17,03,51,7.20
2016,04,17,03,52,7.20
2016,04,17,03,53,7.20
2016,04,17,03,54,7.20
2016,04,17,03,55,7.10
2016,04,17,03,56,7.10
2016,04,17,03,57,7.00
2016,04,17,03,58,7.00
2016,04,17,03,59,7.00
2016,04,17,04,00,7.00
2016,04,17,04,01,7.00
2016,04,17,04,02,7.10
2016,04,17,04,03,7.10
2016,04,17,04,04,7.10
2016,04,17,04,05,7.10
2016,04,17,04,06,7.10
2016,04,17,04,07,7.10
2016,04,17,04,08,7.10
2016,04,17,04,09,7.10
2016,04,17,04,10,7.00
2016,04,17,04,11,7.00
2016,04,17,04,12,7.00
2016,04,17,04,13,7.00
2016,04,17,04,14,7.00
2016,04,17,04,15,7.10
2016,04,17,04,16,7.10
2016,04,17,04,17,7.10
2016,04,17,04,18,7.10
2016,04,17,04,19,7.10
2016,04,17,04,20,7.20
2016,04,17,04,21,7.20
2016,04,17,04,22,7.20
2016,04,17,04,23,7.20
2016,04,17,04,24,7.20
2016,04,17,04,25,7.20
2016,04,17,04,26,7.20
2016,04,17,04,27,7.20
2016,04,17,04,28,7.20
2016,04,17,04,29,7.20
2016,04,17,04,30,7.20
2016,04,17,04,31,7.20
2016,04,17,04,32,7.20
2016,04,17,04,33,7.10
2016,04,17,04,34,7.00
2016,04,17,04,35,7.00
2016,04,17,04,36,6.90
2016,04,17,04,37,6.90
2016,04,17,04,38,6.80
2016,04,17,04,39,6.80
2016,04,17,04,40,6.80
2016,04,17,04,41,6.80
2016,04,17,04,42,6.80
2016,04,17,04,43,6.80
2016,04,17,04,44,6.80
2016,04,17,04,45,6.80
2016,04,17,04,46,6.80
2016,04,17,04,47,6.80
2016,04,17,04,48,6.80
2016,04,17,04,49,6.80
2016,04,17,04,50,6.70
2016,04,17,04,51,6.70
2016,04,17,04,52,6.70
2016,04,17,04,53,6.70
2016,04,17,04,54,6.70
2016,04,17,04,55,6.70
2016,04,17,04,56,6.70
2016,04,17,04,57,6.70
2016,04,17,04,58,6.70
2016,04,17,04,59,6.70
2016,04,17,05,00,6.80
2016,04,17,05,01,6.80
2016,04,17,05,02,6.80
2016,04,17,05,03,6.70
2016,04,17,05,04,6.70
2016,04,17,05,05,6.70
2016,04,17,05,06,6.70
2016,04,17,05,07,6.60
2016,04,17,05,08,6.60
2016,04,17,05,09,6.60
2016,04,17,05,10,6.50
2016,04,17,05,11,6.50
2016,04,17,05,12,6.50
2016,04,17,05,13,6.40
2016,04,17,05,14,6.40
2016,04,17,05,15,6.40
2016,04,17,05,16,6.40
2016,04,17,05,17,6.30
2016,04,17,05,18,6.30
2016,04,17,05,19,6.20
2016,04,17,05,20,6.20
2016,04,17,05,21,6.20
2016,04,17,05,22,6.20
2016,04,17,05,23,6.20
2016,04,17,05,24,6.20
2016,04,17,05,25,6.20
2016,04,17,05,26,6.20
2016,04,17,05,27,6.20
2016,04,17,05,28,6.20
2016,04,17,05,29,6.20
2016,04,17,05,30,6.20
2016,04,17,05,31,6.20
2016,04,17,05,32,6.20
2016,04,17,05,33,6.20
2016,04,17,05,34,6.20
2016,04,17,05,35,6.20
2016,04,17,05,36,6.20
2016,04,17,05,37,6.10
2016,04,17,05,38,6.10
2016,04,17,05,39,6.20
2016,04,17,05,40,6.20
2016,04,17,05,41,6.20
2016,04,17,05,42,6.20
2016,04,17,05,43,6.20
2016,04,17,05,44,6.20
2016,04,17,05,45,6.20
2016,04,17,05,46,6.20
2016,04,17,05,47,6.10
2016,04,17,05,48,6.20
2016,04,17,05,49,6.20
2016,04,17,05,50,6.20
2016,04,17,05,51,6.20
2016,04,17,05,52,6.20
2016,04,17,05,53,6.20
2016,04,17,05,54,6.20
2016,04,17,05,55,6.30
2016,04,17,05,56,6.30
2016,04,17,05,57,6.20
2016,04,17,05,58,6.20
2016,04,17,05,59,6.20
2016,04,17,06,00,6.20
2016,04,17,06,01,6.20
2016,04,17,06,02,6.10
2016,04,17,06,03,6.20
2016,04,17,06,04,6.20
2016,04,17,06,05,6.20
2016,04,17,06,06,6.20
2016,04,17,06,07,6.10
2016,04,17,06,08,6.10
2016,04,17,06,09,6.10
2016,04,17,06,10,6.00
2016,04,17,06,11,6.00
2016,04,17,06,12,5.90
2016,04,17,06,13,5.90
2016,04,17,06,14,5.90
2016,04,17,06,15,5.90
2016,04,17,06,16,5.90
2016,04,17,06,17,5.90
2016,04,17,06,18,5.80
2016,04,17,06,19,5.80
2016,04,17,06,20,5.80
2016,04,17,06,21,5.80
2016,04,17,06,22,5.70
2016,04,17,06,23,5.70
2016,04,17,06,24,5.70
2016,04,17,06,25,5.70
2016,04,17,06,26,5.70
2016,04,17,06,27,5.80
2016,04,17,06,28,5.80
2016,04,17,06,29,5.80
2016,04,17,06,30,5.90
2016,04,17,06,31,5.90
2016,04,17,06,32,5.90
2016,04,17,06,33,6.00
2016,04,17,06,34,6.00
2016,04,17,06,35,6.10
2016,04,17,06,36,6.10
2016,04,17,06,37,6.10
2016,04,17,06,38,6.20
2016,04,17,06,39,6.10
2016,04,17,06,40,6.10
2016,04,17,06,41,6.10
2016,04,17,06,42,6.00
2016,04,17,06,43,6.00
2016,04,17,06,44,6.00
2016,04,17,06,45,5.90
2016,04,17,06,46,5.90
2016,04,17,06,47,5.90
2016,04,17,06,48,5.90
2016,04,17,06,49,5.90
2016,04,17,06,50,5.90
2016,04,17,06,51,5.80
2016,04,17,06,52,5.80
2016,04,17,06,53,5.80
2016,04,17,06,54,5.80
2016,04,17,06,55,9.30
2016,04,17,06,55,6.10
2016,04,17,06,56,5.80
2016,04,17,06,57,5.80
2016,04,17,06,58,5.80
2016,04,17,06,59,5.80
2016,04,17,07,00,5.80
2016,04,17,07,01,5.80
2016,04,17,07,02,5.80
2016,04,17,07,03,5.90
2016,04,17,07,04,5.90
2016,04,17,07,05,5.90
2016,04,17,07,06,5.90
2016,04,17,07,07,5.90
2016,04,17,07,08,5.90
2016,04,17,07,09,5.90
2016,04,17,07,10,5.90
2016,04,17,07,11,5.90
2016,04,17,07,12,5.80
2016,04,17,07,13,5.80
2016,04,17,07,14,5.80
2016,04,17,07,15,5.80
2016,04,17,07,16,5.80
2016,04,17,07,17,5.80
2016,04,17,07,18,5.90
2016,04,17,07,19,5.90
2016,04,17,07,20,6.00
2016,04,17,07,21,6.10
2016,04,17,07,22,6.10
2016,04,17,07,23,6.20
2016,04,17,07,24,6.20
2016,04,17,07,25,6.30
2016,04,17,07,26,6.30
2016,04,17,07,27,6.40
2016,04,17,07,28,6.50
2016,04,17,07,29,6.50
2016,04,17,07,30,6.60
2016,04,17,07,31,6.60
2016,04,17,07,32,6.70
2016,04,17,07,33,6.70
2016,04,17,07,34,6.80
2016,04,17,07,35,6.80
2016,04,17,07,36,6.80
2016,04,17,07,37,6.90
2016,04,17,07,38,6.90
2016,04,17,07,39,6.90
2016,04,17,07,40,7.00
2016,04,17,07,41,7.10
2016,04,17,07,42,7.10
2016,04,17,07,43,7.20
2016,04,17,07,44,7.20
2016,04,17,07,45,7.20
2016,04,17,07,46,7.30
2016,04,17,07,47,7.40
2016,04,17,07,48,7.40
2016,04,17,07,49,7.50
2016,04,17,07,50,7.60
2016,04,17,07,51,7.60
2016,04,17,07,52,7.70
2016,04,17,07,53,7.70
2016,04,17,07,54,7.80
2016,04,17,07,55,7.80
2016,04,17,07,56,7.80
2016,04,17,07,57,7.80
2016,04,17,07,58,7.90
2016,04,17,07,59,7.90
2016,04,17,08,00,8.00
2016,04,17,08,01,8.00
2016,04,17,08,02,8.10
2016,04,17,08,03,8.10
2016,04,17,08,04,8.20
2016,04,17,08,05,8.20
2016,04,17,08,06,8.30
2016,04,17,08,07,8.40
2016,04,17,08,08,8.50
2016,04,17,08,09,8.60
2016,04,17,08,10,8.60
2016,04,17,08,11,8.70
2016,04,17,08,12,8.80
2016,04,17,08,13,8.80
2016,04,17,08,14,8.90
2016,04,17,08,15,8.90
2016,04,17,08,16,8.90
2016,04,17,08,17,9.00
2016,04,17,08,18,9.00
2016,04,17,08,19,9.00
2016,04,17,08,20,9.10
2016,04,17,08,21,9.10
2016,04,17,08,22,9.20
2016,04,17,08,23,9.20
2016,04,17,08,24,9.20
2016,04,17,08,25,9.30
2016,04,17,08,26,9.30
2016,04,17,08,27,9.30
2016,04,17,08,28,9.30
2016,04,17,08,29,9.40
2016,04,17,08,30,9.40
2016,04,17,08,31,9.50
2016,04,17,08,32,9.50
2016,04,17,08,33,9.50
2016,04,17,08,34,9.60
2016,04,17,08,35,9.60
2016,04,17,08,36,9.60
2016,04,17,08,37,9.70
2016,04,17,08,38,9.70
2016,04,17,08,39,9.80
2016,04,17,08,40,9.80
2016,04,17,08,41,9.80
2016,04,17,08,42,9.90
2016,04,17,08,43,9.90
2016,04,17,08,44,9.90
2016,04,17,08,45,9.90
2016,04,17,08,46,9.90
2016,04,17,08,47,10.00
2016,04,17,08,48,10.00
2016,04,17,08,49,10.00
2016,04,17,08,50,10.10
2016,04,17,08,51,10.10
2016,04,17,08,52,10.20
2016,04,17,08,53,10.20
2016,04,17,08,54,10.20
2016,04,17,08,55,10.20
2016,04,17,08,56,10.20
2016,04,17,08,57,10.20
2016,04,17,08,58,10.30
2016,04,17,08,59,10.30
2016,04,17,09,00,10.30
2016,04,17,09,01,10.30
2016,04,17,09,02,10.30
2016,04,17,09,03,10.40
2016,04,17,09,04,10.40
2016,04,17,09,05,10.40
2016,04,17,09,06,10.40
2016,04,17,09,07,10.40
2016,04,17,09,08,10.50
2016,04,17,09,09,10.50
2016,04,17,09,10,10.50
2016,04,17,09,11,10.50
2016,04,17,09,12,10.60
2016,04,17,09,13,10.60
2016,04,17,09,14,10.60
2016,04,17,09,15,10.60
2016,04,17,09,16,10.60
2016,04,17,09,17,10.60
2016,04,17,09,18,10.60
2016,04,17,09,19,10.70
2016,04,17,09,20,10.70
2016,04,17,09,21,10.70
2016,04,17,09,22,10.70
2016,04,17,09,23,10.80
2016,04,17,09,24,10.80
2016,04,17,09,25,10.80
2016,04,17,09,26,10.80
2016,04,17,09,27,10.80
2016,04,17,09,28,10.90
2016,04,17,09,29,10.90
2016,04,17,09,30,10.90
2016,04,17,09,31,10.90
2016,04,17,09,32,11.00
2016,04,17,09,33,11.10
2016,04,17,09,34,11.10
2016,04,17,09,35,11.10
2016,04,17,09,36,11.10
2016,04,17,09,37,11.10
2016,04,17,09,38,11.10
2016,04,17,09,39,11.20
2016,04,17,09,40,11.20
2016,04,17,09,41,11.20
2016,04,17,09,42,11.20
2016,04,17,09,43,11.20
2016,04,17,09,44,11.20
2016,04,17,09,45,11.30
2016,04,17,09,46,11.30
2016,04,17,09,47,11.30
2016,04,17,09,48,11.30
2016,04,17,09,49,11.30
2016,04,17,09,50,11.30
2016,04,17,09,51,11.40
2016,04,17,09,52,11.40
2016,04,17,09,53,11.40
2016,04,17,09,54,11.50
2016,04,17,09,55,11.50
2016,04,17,09,56,11.60
2016,04,17,09,57,11.60
2016,04,17,09,58,11.60
2016,04,17,09,59,11.60
2016,04,17,10,00,11.70
2016,04,17,10,01,11.70
2016,04,17,10,02,11.70
2016,04,17,10,03,11.70
2016,04,17,10,04,11.70
2016,04,17,10,05,11.70
2016,04,17,10,06,11.60
2016,04,17,10,07,11.60
2016,04,17,10,08,11.60
2016,04,17,10,09,11.60
2016,04,17,10,10,11.70
2016,04,17,10,11,11.70
2016,04,17,10,12,11.70
2016,04,17,10,13,11.70
2016,04,17,10,14,11.70
2016,04,17,10,15,11.80
2016,04,17,10,16,11.80
2016,04,17,10,17,11.80
2016,04,17,10,18,11.90
2016,04,17,10,19,11.90
2016,04,17,10,20,11.90
2016,04,17,10,21,11.90
2016,04,17,10,22,12.00
2016,04,17,10,23,12.00
2016,04,17,10,24,12.00
2016,04,17,10,25,12.00
2016,04,17,10,26,12.00
2016,04,17,10,27,11.90
2016,04,17,10,28,11.90
2016,04,17,10,29,11.90
2016,04,17,10,30,12.00
2016,04,17,10,31,12.00
2016,04,17,10,32,12.00
2016,04,17,10,33,12.00
2016,04,17,10,34,12.10
2016,04,17,10,35,12.10
2016,04,17,10,36,12.20
2016,04,17,10,37,12.20
2016,04,17,10,38,12.30
2016,04,17,10,39,12.30
2016,04,17,10,40,12.40
2016,04,17,10,41,12.50
2016,04,17,10,42,12.60
2016,04,17,10,43,12.60
2016,04,17,10,44,12.70
2016,04,17,10,45,12.70
2016,04,17,10,46,12.70
2016,04,17,10,47,12.80
2016,04,17,10,48,12.80
2016,04,17,10,49,12.80
2016,04,17,10,50,12.80
2016,04,17,10,51,12.80
2016,04,17,10,52,12.80
2016,04,17,10,53,12.80
2016,04,17,10,54,12.80
2016,04,17,10,55,12.70
2016,04,17,10,56,12.70
2016,04,17,10,57,12.70
2016,04,17,10,58,12.70
2016,04,17,10,59,12.70
2016,04,17,11,00,12.80
2016,04,17,11,01,12.80
2016,04,17,11,02,12.80
2016,04,17,11,03,12.80
2016,04,17,11,04,12.90
2016,04,17,11,05,12.90
2016,04,17,11,06,13.00
2016,04,17,11,07,13.00
2016,04,17,11,08,13.10
2016,04,17,11,09,13.20
2016,04,17,11,10,13.30
2016,04,17,11,11,13.40
2016,04,17,11,12,13.30
2016,04,17,11,13,13.30
2016,04,17,11,14,13.30
2016,04,17,11,15,13.20
2016,04,17,11,16,13.30
2016,04,17,11,17,13.30
2016,04,17,11,18,13.30
2016,04,17,11,19,13.20
2016,04,17,11,20,13.10
2016,04,17,11,21,13.00
2016,04,17,11,22,12.90
2016,04,17,11,23,12.90
2016,04,17,11,24,12.80
2016,04,17,11,25,12.70
2016,04,17,11,26,12.70
2016,04,17,11,27,12.70
2016,04,17,11,28,12.70
2016,04,17,11,29,12.80
2016,04,17,11,30,12.90
2016,04,17,11,31,13.00
2016,04,17,11,32,13.00
2016,04,17,11,33,13.00
2016,04,17,11,34,13.00
2016,04,17,11,35,13.00
2016,04,17,11,36,12.90
2016,04,17,11,37,12.90
2016,04,17,11,38,12.90
2016,04,17,11,39,13.00
2016,04,17,11,40,13.00
2016,04,17,11,41,13.00
2016,04,17,11,42,13.00
2016,04,17,11,43,13.00
2016,04,17,11,44,13.10
2016,04,17,11,45,13.10
2016,04,17,11,46,13.10
2016,04,17,11,47,13.00
2016,04,17,11,48,13.00
2016,04,17,11,49,13.10
2016,04,17,11,50,13.20
2016,04,17,11,51,13.10
2016,04,17,11,52,13.20
2016,04,17,11,53,13.20
2016,04,17,11,54,13.20
2016,04,17,11,55,13.20
2016,04,17,11,56,13.20
2016,04,17,11,57,13.10
2016,04,17,11,58,13.10
2016,04,17,11,59,13.20
2016,04,17,12,00,13.20
2016,04,17,12,01,13.20
2016,04,17,12,02,13.30
2016,04,17,12,03,13.30
2016,04,17,12,04,13.20
2016,04,17,12,05,13.20
2016,04,17,12,06,13.10
2016,04,17,12,07,13.10
2016,04,17,12,08,13.10
2016,04,17,12,09,13.10
2016,04,17,12,10,13.10
2016,04,17,12,11,13.20
2016,04,17,12,12,13.20
2016,04,17,12,13,13.40
2016,04,17,12,14,13.40
2016,04,17,12,15,13.50
2016,04,17,12,16,13.50
2016,04,17,12,17,13.40
2016,04,17,12,18,13.40
2016,04,17,12,19,13.30
2016,04,17,12,20,13.20
2016,04,17,12,21,13.10
2016,04,17,12,22,13.00
2016,04,17,12,23,13.00
2016,04,17,12,24,13.10
2016,04,17,12,25,13.20
2016,04,17,12,26,13.20
2016,04,17,12,27,13.20
2016,04,17,12,28,13.20
2016,04,17,12,29,13.30
2016,04,17,12,30,13.40
2016,04,17,12,31,13.50
2016,04,17,12,32,13.50
2016,04,17,12,33,13.40
2016,04,17,12,34,13.40
2016,04,17,12,35,13.40
2016,04,17,12,36,13.40
2016,04,17,12,37,13.40
2016,04,17,12,38,13.50
2016,04,17,12,39,13.50
2016,04,17,12,40,13.50
2016,04,17,12,41,13.50
2016,04,17,12,42,13.60
2016,04,17,12,43,13.50
2016,04,17,12,44,13.50
2016,04,17,12,45,13.50
2016,04,17,12,46,13.50
2016,04,17,12,47,13.50
2016,04,17,12,48,13.60
2016,04,17,12,49,13.60
2016,04,17,12,50,13.60
2016,04,17,12,51,13.60
2016,04,17,12,52,13.60
2016,04,17,12,53,13.70
2016,04,17,12,54,13.80
2016,04,17,12,55,13.80
2016,04,17,12,56,13.90
2016,04,17,12,57,13.90
2016,04,17,12,58,14.00
2016,04,17,12,59,14.10
2016,04,17,13,00,14.20
2016,04,17,13,01,14.20
2016,04,17,13,02,14.20
2016,04,17,13,03,14.20
2016,04,17,13,04,14.20
2016,04,17,13,05,14.20
2016,04,17,13,06,14.20
2016,04,17,13,07,14.30
2016,04,17,13,08,14.30
2016,04,17,13,09,14.30
2016,04,17,13,10,14.40
2016,04,17,13,11,14.40
2016,04,17,13,12,14.30
2016,04,17,13,13,14.30
2016,04,17,13,14,14.40
2016,04,17,13,15,14.30
2016,04,17,13,16,14.30
2016,04,17,13,17,14.30
2016,04,17,13,18,14.30
2016,04,17,13,19,14.30
2016,04,17,13,20,14.20
2016,04,17,13,21,14.10
2016,04,17,13,22,14.10
2016,04,17,13,23,14.10
2016,04,17,13,24,14.20
2016,04,17,13,25,14.30
2016,04,17,13,26,14.30
2016,04,17,13,27,14.30
2016,04,17,13,28,14.30
2016,04,17,13,29,14.30
2016,04,17,13,30,14.30
2016,04,17,13,31,14.30
2016,04,17,13,32,14.40
2016,04,17,13,33,14.40
2016,04,17,13,34,14.40
2016,04,17,13,35,14.40
2016,04,17,13,36,14.50
2016,04,17,13,37,14.60
2016,04,17,13,38,14.70
2016,04,17,13,39,14.80
2016,04,17,13,40,15.00
2016,04,17,13,41,15.00
2016,04,17,13,42,15.00
2016,04,17,13,43,15.00
2016,04,17,13,44,15.00
2016,04,17,13,45,15.00
2016,04,17,13,46,15.00
2016,04,17,13,47,15.00
2016,04,17,13,48,15.00
2016,04,17,13,49,15.00
2016,04,17,13,50,15.00
2016,04,17,13,51,15.00
2016,04,17,13,52,15.00
2016,04,17,13,53,15.00
2016,04,17,13,54,15.10
2016,04,17,13,55,15.30
2016,04,17,13,56,15.30
2016,04,17,13,57,15.40
2016,04,17,13,58,15.50
2016,04,17,13,59,15.60
2016,04,17,14,00,15.60
2016,04,17,14,01,15.60
2016,04,17,14,02,15.70
2016,04,17,14,03,15.80
2016,04,17,14,04,15.80
2016,04,17,14,05,15.80
2016,04,17,14,06,15.80
2016,04,17,14,07,15.80
2016,04,17,14,08,15.80
2016,04,17,14,09,15.80
2016,04,17,14,10,15.90
2016,04,17,14,11,15.90
2016,04,17,14,12,16.00
2016,04,17,14,13,16.00
2016,04,17,14,14,16.10
2016,04,17,14,15,16.10
2016,04,17,14,16,16.20
2016,04,17,14,17,16.20
2016,04,17,14,18,16.20
2016,04,17,14,19,16.10
2016,04,17,14,20,16.10
2016,04,17,14,21,16.20
2016,04,17,14,22,16.20
2016,04,17,14,23,16.40
2016,04,17,14,24,16.40
2016,04,17,14,25,16.40
2016,04,17,14,26,16.40
2016,04,17,14,27,16.40
2016,04,17,14,28,16.30
2016,04,17,14,29,16.30
2016,04,17,14,30,16.20
2016,04,17,14,31,16.20
2016,04,17,14,32,16.20
2016,04,17,14,33,16.30
2016,04,17,14,34,16.30
2016,04,17,14,35,16.30
2016,04,17,14,36,16.40
2016,04,17,14,37,16.40
2016,04,17,14,38,16.40
2016,04,17,14,39,16.30
2016,04,17,14,40,16.30
2016,04,17,14,41,16.30
2016,04,17,14,42,16.40
2016,04,17,14,43,16.50
2016,04,17,14,44,16.60
2016,04,17,14,45,16.70
2016,04,17,14,46,16.70
2016,04,17,14,47,16.80
2016,04,17,14,48,16.80
2016,04,17,14,49,16.90
2016,04,17,14,50,16.90
2016,04,17,14,51,17.00
2016,04,17,14,52,17.00
2016,04,17,14,53,16.90
2016,04,17,14,54,16.90
2016,04,17,14,55,16.90
2016,04,17,14,56,16.90
2016,04,17,14,57,16.90
2016,04,17,14,58,16.90
2016,04,17,14,59,16.90
2016,04,17,15,00,16.90
2016,04,17,15,01,16.90
2016,04,17,15,02,16.80
2016,04,17,15,03,16.80
2016,04,17,15,04,16.80
2016,04,17,15,05,16.80
2016,04,17,15,06,16.80
2016,04,17,15,07,16.80
2016,04,17,15,08,16.70
2016,04,17,15,09,16.70
2016,04,17,15,10,16.80
2016,04,17,15,11,16.80
2016,04,17,15,12,16.80
2016,04,17,15,13,16.90
2016,04,17,15,14,16.90
2016,04,17,15,15,17.00
2016,04,17,15,16,17.00
2016,04,17,15,17,17.00
2016,04,17,15,18,17.10
2016,04,17,15,19,17.10
2016,04,17,15,20,17.10
2016,04,17,15,21,17.10
2016,04,17,15,22,17.00
2016,04,17,15,23,16.90
2016,04,17,15,24,16.80
2016,04,17,15,25,16.70
2016,04,17,15,26,16.70
2016,04,17,15,27,16.70
2016,04,17,15,28,16.70
2016,04,17,15,29,16.70
2016,04,17,15,30,16.70
2016,04,17,15,31,16.70
2016,04,17,15,32,16.70
2016,04,17,15,33,16.70
2016,04,17,15,34,16.70
2016,04,17,15,35,16.70
2016,04,17,15,36,16.70
2016,04,17,15,37,16.60
2016,04,17,15,38,16.60
2016,04,17,15,39,16.60
2016,04,17,15,40,16.60
2016,04,17,15,41,16.60
2016,04,17,15,42,16.60
2016,04,17,15,43,16.50
2016,04,17,15,44,16.50
2016,04,17,15,45,16.50
2016,04,17,15,46,16.50
2016,04,17,15,47,16.50
2016,04,17,15,48,16.60
2016,04,17,15,49,16.60
2016,04,17,15,50,16.50
2016,04,17,15,51,16.50
2016,04,17,15,52,16.60
2016,04,17,15,53,16.60
2016,04,17,15,54,16.60
2016,04,17,15,55,16.60
2016,04,17,15,56,16.50
2016,04,17,15,57,16.50
2016,04,17,15,58,16.40
2016,04,17,15,59,16.40
2016,04,17,16,00,16.50
2016,04,17,16,01,16.50
2016,04,17,16,02,16.60
2016,04,17,16,03,16.60
2016,04,17,16,04,16.50
2016,04,17,16,05,16.50
2016,04,17,16,06,16.50
2016,04,17,16,07,16.40
2016,04,17,16,08,16.40
2016,04,17,16,09,16.40
2016,04,17,16,10,16.40
2016,04,17,16,11,16.30
2016,04,17,16,12,16.40
2016,04,17,16,13,16.50
2016,04,17,16,14,16.60
2016,04,17,16,15,16.60
2016,04,17,16,16,16.70
2016,04,17,16,17,16.70
2016,04,17,16,18,16.80
2016,04,17,16,19,16.80
2016,04,17,16,20,16.90
2016,04,17,16,21,16.90
2016,04,17,16,22,17.00
2016,04,17,16,23,17.00
2016,04,17,16,24,17.10
2016,04,17,16,25,17.10
2016,04,17,16,26,17.10
2016,04,17,16,27,17.20
2016,04,17,16,28,17.10
2016,04,17,16,29,17.10
2016,04,17,16,30,17.00
2016,04,17,16,31,17.00
2016,04,17,16,32,17.00
2016,04,17,16,33,16.90
2016,04,17,16,34,16.90
2016,04,17,16,35,16.90
2016,04,17,16,36,16.80
2016,04,17,16,37,16.80
2016,04,17,16,38,16.80
2016,04,17,16,39,16.80
2016,04,17,16,40,16.80
2016,04,17,16,41,16.80
2016,04,17,16,42,16.70
2016,04,17,16,43,16.70
2016,04,17,16,44,16.70
2016,04,17,16,45,16.70
2016,04,17,16,46,16.60
2016,04,17,16,47,16.60
2016,04,17,16,48,16.60
2016,04,17,16,49,16.60
2016,04,17,16,50,16.60
2016,04,17,16,51,16.60
2016,04,17,16,52,16.70
2016,04,17,16,53,16.80
2016,04,17,16,54,16.80
2016,04,17,16,55,16.80
2016,04,17,16,56,16.80
2016,04,17,16,57,16.80
2016,04,17,16,58,16.90
2016,04,17,16,59,16.90
2016,04,17,17,00,16.80
2016,04,17,17,01,16.80
2016,04,17,17,02,16.70
2016,04,17,17,03,16.60
2016,04,17,17,04,16.60
2016,04,17,17,05,16.50
2016,04,17,17,06,16.40
2016,04,17,17,07,16.40
2016,04,17,17,08,16.40
2016,04,17,17,09,16.50
2016,04,17,17,10,16.50
2016,04,17,17,11,16.60
2016,04,17,17,12,16.60
2016,04,17,17,13,16.60
2016,04,17,17,14,16.70
2016,04,17,17,15,16.70
2016,04,17,17,16,16.70
2016,04,17,17,17,16.70
2016,04,17,17,18,16.60
2016,04,17,17,19,16.60
2016,04,17,17,20,16.50
2016,04,17,17,21,16.40
2016,04,17,17,22,16.40
2016,04,17,17,23,16.50
2016,04,17,17,24,16.50
2016,04,17,17,25,16.60
2016,04,17,17,26,16.60
2016,04,17,17,27,16.70
2016,04,17,17,28,16.70
2016,04,17,17,29,16.70
2016,04,17,17,30,16.70
2016,04,17,17,31,16.70
2016,04,17,17,32,16.70
2016,04,17,17,33,16.70
2016,04,17,17,34,16.70
2016,04,17,17,35,16.70
2016,04,17,17,36,16.70
2016,04,17,17,37,16.70
2016,04,17,17,38,16.70
2016,04,17,17,39,16.70
2016,04,17,17,40,16.70
2016,04,17,17,41,16.70